Retour au catalogue

COSMOS 970 DEB

ActifLEO
NORAD 64973·DEBRIS·🇷🇺 Russia

Lancé Dec 21, 1977 depuis Baikonur Cosmodrome

Loading…

Prochains Passages (prochaines 24 heures)

TLE

FraisSource: Space-Track

Époque: Sep 13, 2026, 03:14 UTC

1 64973U 77121CJ  26256.13533717  .00000338  00000-0  39536-3 0  9991
2 64973  66.8541 165.3585 0225902 320.4055  38.0698 13.69306851594333

Suivez COSMOS 970 DEB en temps réel avec AllMySat

Download on the App Store